| time (UTC) | temp C | wind direction | speed KPH | gust KPH | rain 1hr cm | rain 24hr cm | rain mn cm | humidity % | barometer mb |
| 20260507060703 | 13 | 120 | 3.2 | 4.8 | 0.00 | 0.00 | 0.00 | 79 | 1010.4 |
| 20260507060203 | 13 | 124 | 1.6 | 8.0 | 0.00 | 0.00 | 0.00 | 78 | 1010.3 |
| 20260507053702 | 13 | 212 | 0.0 | 4.8 | 0.00 | 0.00 | 0.00 | 79 | 1010.2 |
| 20260507050703 | 13 | 193 | 1.6 | 4.8 | 0.00 | 0.00 | 0.00 | 80 | 1010.1 |
| 20260507050203 | 13 | 186 | 0.0 | 4.8 | 0.00 | 0.00 | 0.00 | 80 | 1010.1 |
| 20260507043202 | 13 | 176 | 0.0 | 11.3 | 0.00 | 0.00 | 0.00 | 78 | 1009.9 |
| 20260507040703 | 13 | 155 | 3.2 | 4.8 | 0.00 | 0.00 | 0.00 | 78 | 1009.7 |
| 20260507040203 | 13 | 246 | 3.2 | 4.8 | 0.00 | 0.00 | 0.00 | 78 | 1009.7 |
| 20260507033703 | 13 | 246 | 1.6 | 4.8 | 0.00 | 0.00 | 0.00 | 77 | 1009.5 |
| 20260507033203 | 13 | 247 | 1.6 | 4.8 | 0.00 | 0.00 | 0.00 | 76 | 1009.6 |
| 20260507030203 | 14 | 257 | 1.6 | 9.7 | 0.00 | 0.00 | 0.00 | 76 | 1009.6 |
| 20260507023703 | 14 | 208 | 1.6 | 4.8 | 0.00 | 0.00 | 0.00 | 76 | 1009.3 |
| 20260507023202 | 14 | 209 | 1.6 | 8.0 | 0.00 | 0.00 | 0.00 | 76 | 1009.3 |
| 20260507020703 | 14 | 219 | 3.2 | 8.0 | 0.00 | 0.00 | 0.00 | 75 | 1009.5 |
| 20260507020203 | 14 | 210 | 1.6 | 8.0 | 0.00 | 0.00 | 0.00 | 75 | 1009.5 |
| 20260507013203 | 14 | 206 | 1.6 | 11.3 | 0.00 | 0.00 | 0.00 | 74 | 1009.7 |
| 20260507010702 | 14 | 215 | 1.6 | 4.8 | 0.00 | 0.00 | 0.00 | 73 | 1009.9 |
| 20260507003702 | 15 | 218 | 0.0 | 4.8 | 0.00 | 0.00 | 0.00 | 73 | 1010.1 |
| 20260507000703 | 15 | 218 | 1.6 | 8.0 | 0.00 | 0.00 | 0.00 | 74 | 1010.3 |
| 20260507000204 | 15 | 198 | 1.6 | 9.7 | 0.00 | 0.00 | 0.00 | 74 | 1010.3 |
| 20260506233703 | 15 | 234 | 0.0 | 1.6 | 0.00 | 0.00 | 0.00 | 74 | 1010.4 |
| 20260506223703 | 15 | 218 | 3.2 | 9.7 | 0.00 | 0.00 | 0.00 | 64 | 1010.5 |
| 20260506223203 | 15 | 225 | 1.6 | 8.0 | 0.00 | 0.00 | 0.00 | 63 | 1010.6 |
| 20260506220703 | 16 | 246 | 1.6 | 9.7 | 0.00 | 0.00 | 0.00 | 59 | 1010.4 |
| 20260506220203 | 16 | 277 | 0.0 | 4.8 | 0.00 | 0.00 | 0.00 | 59 | 1010.4 |
| 20260506213703 | 16 | 279 | 1.6 | 4.8 | 0.00 | 0.00 | 0.00 | 57 | 1010.3 |
| 20260506213203 | 16 | 283 | 3.2 | 16.1 | 0.00 | 0.00 | 0.00 | 57 | 1010.2 |
| 20260506210703 | 17 | 279 | 1.6 | 11.3 | 0.00 | 0.00 | 0.00 | 55 | 1010.0 |
| 20260506210203 | 17 | 281 | 1.6 | 12.9 | 0.00 | 0.00 | 0.00 | 54 | 1010.0 |
| 20260506203703 | 17 | 275 | 6.4 | 11.3 | 0.00 | 0.00 | 0.00 | 52 | 1009.7 |
| 20260506203204 | 17 | 264 | 8.0 | 16.1 | 0.00 | 0.00 | 0.00 | 52 | 1009.7 |
| 20260506200703 | 18 | 263 | 4.8 | 11.3 | 0.00 | 0.00 | 0.00 | 49 | 1009.6 |
| 20260506200204 | 18 | 257 | 8.0 | 14.5 | 0.00 | 0.00 | 0.00 | 49 | 1009.6 |
| 20260506193703 | 19 | 257 | 8.0 | 12.9 | 0.00 | 0.00 | 0.00 | 47 | 1009.2 |
| 20260506190702 | 20 | 283 | 8.0 | 16.1 | 0.00 | 0.00 | 0.00 | 46 | 1009.0 |
| 20260506183703 | 21 | 265 | 8.0 | 22.5 | 0.00 | 0.00 | 0.00 | 43 | 1008.8 |
| 20260506183203 | 21 | 257 | 12.9 | 22.5 | 0.00 | 0.00 | 0.00 | 43 | 1008.8 |
| 20260506180703 | 22 | 254 | 11.3 | 20.9 | 0.00 | 0.00 | 0.00 | 40 | 1008.7 |
| 20260506180203 | 22 | 250 | 9.7 | 22.5 | 0.00 | 0.00 | 0.00 | 39 | 1008.7 |
| 20260506173704 | 22 | 224 | 8.0 | 19.3 | 0.00 | 0.00 | 0.00 | 36 | 1008.7 |
| 20260506173203 | 22 | 242 | 6.4 | 24.1 | 0.00 | 0.00 | 0.00 | 36 | 1008.8 |
| 20260506170703 | 23 | 243 | 3.2 | 19.3 | 0.00 | 0.00 | 0.00 | 35 | 1008.9 |
| 20260506170203 | 23 | 248 | 8.0 | 27.4 | 0.00 | 0.00 | 0.00 | 35 | 1009.0 |
| 20260506163703 | 23 | 249 | 9.7 | 22.5 | 0.00 | 0.00 | 0.00 | 35 | 1008.8 |
| 20260506160703 | 24 | 258 | 1.6 | 12.9 | 0.00 | 0.00 | 0.00 | 28 | 1009.0 |
| 20260506153703 | 24 | 254 | 1.6 | 11.3 | 0.00 | 0.00 | 0.00 | 28 | 1009.0 |
| 20260506153203 | 24 | 281 | 3.2 | 14.5 | 0.00 | 0.00 | 0.00 | 28 | 1009.2 |
| 20260506150203 | 23 | 281 | 3.2 | 16.1 | 0.00 | 0.00 | 0.00 | 33 | 1009.7 |
| 20260506143703 | 23 | 177 | 1.6 | 9.7 | 0.00 | 0.00 | 0.00 | 33 | 1010.1 |
| 20260506143204 | 23 | 161 | 8.0 | 14.5 | 0.00 | 0.00 | 0.00 | 33 | 1010.2 |
| 20260506140703 | 23 | 107 | 3.2 | 11.3 | 0.00 | 0.00 | 0.00 | 32 | 1010.6 |
| 20260506140204 | 23 | 186 | 1.6 | 16.1 | 0.00 | 0.00 | 0.00 | 32 | 1010.6 |
| 20260506133203 | 23 | 226 | 4.8 | 14.5 | 0.00 | 0.00 | 0.00 | 32 | 1010.9 |
| 20260506130703 | 23 | 76 | 0.0 | 3.2 | 0.00 | 0.00 | 0.00 | 33 | 1011.2 |
| 20260506123703 | 22 | 284 | 1.6 | 9.7 | 0.00 | 0.00 | 0.00 | 32 | 1011.4 |
| 20260506123203 | 22 | 285 | 1.6 | 12.9 | 0.00 | 0.00 | 0.00 | 32 | 1011.4 |
| 20260506120703 | 22 | 306 | 0.0 | 4.8 | 0.00 | 0.00 | 0.00 | 34 | 1011.7 |
| 20260506120204 | 22 | 345 | 1.6 | 11.3 | 0.00 | 0.00 | 0.00 | 34 | 1011.7 |
| 20260506113204 | 21 | 63 | 0.0 | 11.3 | 0.00 | 0.00 | 0.00 | 35 | 1012.0 |
| 20260506110703 | 21 | 288 | 1.6 | 9.7 | 0.00 | 0.00 | 0.00 | 37 | 1012.1 |
| 20260506110203 | 21 | 337 | 3.2 | 11.3 | 0.00 | 0.00 | 0.00 | 38 | 1012.1 |
| 20260506103203 | 20 | 115 | 4.8 | 9.7 | 0.00 | 0.00 | 0.00 | 43 | 1012.4 |
| 20260506100704 | 19 | 125 | 1.6 | 4.8 | 0.00 | 0.00 | 0.00 | 46 | 1012.5 |
| 20260506100203 | 18 | 118 | 0.0 | 12.9 | 0.00 | 0.00 | 0.00 | 47 | 1012.5 |
| 20260506093704 | 18 | 123 | 3.2 | 4.8 | 0.00 | 0.00 | 0.00 | 48 | 1012.5 |
| 20260506090703 | 17 | 97 | 0.0 | 4.8 | 0.00 | 0.00 | 0.00 | 50 | 1012.5 |
| 20260506090204 | 17 | 97 | 1.6 | 4.8 | 0.00 | 0.00 | 0.00 | 51 | 1012.6 |
| 20260506083703 | 17 | 95 | 0.0 | 4.8 | 0.00 | 0.00 | 0.00 | 53 | 1012.6 |
| 20260506083203 | 17 | 98 | 0.0 | 9.7 | 0.00 | 0.00 | 0.00 | 54 | 1012.6 |
| 20260506080703 | 16 | 9 | 0.0 | 4.8 | 0.00 | 0.00 | 0.00 | 55 | 1012.6 |
| 20260506073204 | 16 | 61 | 1.6 | 9.7 | 0.00 | 0.00 | 0.00 | 58 | 1012.6 |
| 20260506070704 | 15 | 24 | 0.0 | 3.2 | 0.00 | 0.00 | 0.00 | 63 | 1012.6 |
| 20260506070204 | 15 | 24 | 1.6 | 4.8 | 0.00 | 0.00 | 0.00 | 63 | 1012.6 |